Location: Unspecified
(0.0000°N, 0.0000°E)
Time: 21:51:26
(UTC+00:00)

ACS3 Solar Sail - Pass Details

Date: 31 October 2024
Orbit: 961 x 1024 km, 97.5° (Epoch: 02 November)

Event Time Altitude Azimuth Distance (km) Brightness Sun altitude
Rises 20:59:40 0° 195° (SSW) 3,759 5.2 -47.0°
Reaches altitude 10° 21:02:44 10° 209° (SSW) 2,811 4.6 -47.7°
Enters shadow 21:03:41 13° 216° (SW) 2,563 4.4 -47.9°
